Location: Louisville
(33.0010°N, 82.4110°W)
Time: 23:35:43
(UTC-04:00)

Hubble Space Telescope - Visible Passes

Search period start: 23 September 2018 00:00
Search period end: 03 October 2018 00:00
Orbit: 537 x 541 km, 28.5° (Epoch: 23 September)

Date Brightness Start Highest point End Pass type
(mag) Time Alt. Az. Time Alt. Az. Time Alt. Az.
23 Sep 1.5 19:40:43 10° WSW 19:44:39 44° S 19:48:35 10° ESE visible
23 Sep 2.4 21:22:00 10° WSW 21:24:39 25° SW 21:24:39 25° SW visible
24 Sep 2.4 21:11:43 10° WSW 21:14:50 24° SSW 21:14:50 24° SSW visible
25 Sep 2.6 21:01:32 10° WSW 21:04:36 20° SSW 21:05:04 20° S visible
26 Sep 2.9 20:51:27 10° WSW 20:54:08 17° SSW 20:55:22 15° S visible
27 Sep 3.2 20:41:33 10° SW 20:43:38 14° SSW 20:45:43 10° S visible
28 Sep 3.5 20:32:11 10° SW 20:33:08 11° SSW 20:34:05 10° SSW visible
